Regional Weather Roundup
Issued by NWS

Home | Current Version | Previous Version | Graphics & Text | Print | Product List | Glossary On
Versions: 1 2 3 4 5 6 7 8 9 10 11 12 13 14 15 16 17 18 19 20 21 22 23 24 25 26 27 28 29 30 31 32 33 34 35 36 37 38 39 40 41 42 43 44 45 46 47 48 49 50
000
ASUS43 KOAX 220702
RWRNE

WEATHER ROUNDUP FOR NEBRASKA
NATIONAL WEATHER SERVICE OMAHA NE
200 AM CDT TUE JUL 22 2014

NOTES: SATELLITE DATA IS BEING USED TO AUGMENT CLOUD COVER ABOVE
       12000 FEET.
       "FAIR" INDICATES FEW OR NO CLOUDS BELOW 12,000 FEET WITH NO
       SIGNIFICANT WEATHER AND/OR OBSTRUCTIONS TO VISIBILITY.

  * THESE STATIONS DO NOT REPORT WEATHER SUCH AS RAIN...SNOW OR FOG.

NEZ001>004-019>022-054>056-220800-
NEBRASKA PANHANDLE

CITY           SKY/WX    TMP DP  RH WIND       PRES   REMARKS
SCOTTSBLUFF    PTCLDY    65  59  81 N8        30.08R
ALLIANCE       PTCLDY    81  50  33 E14G22    30.08R
CHADRON        PTCLDY    75  54  47 N13       30.08R
KIMBALL        PTCLDY    67  49  52 S8        30.13S
SIDNEY         MOCLDY    72  53  51 S10       30.11R
$$

NEZ057>060-069>072-079>082-220800-
SOUTHWEST NEBRASKA

CITY           SKY/WX    TMP DP  RH WIND       PRES   REMARKS
NORTH PLATTE   CLOUDY    84  58  40 SW16      29.99R
IMPERIAL       CLEAR     73  60  63 SW3       30.06S
LEXINGTON      PTCLDY    78  63  60 SW12      29.99S
MCCOOK         CLEAR     77  62  59 SW13      30.02R
OGALLALA       PTCLDY    75  59  58 SW5       30.04F
$$

NEZ005>010-023>029-035>040-094-220800-
NORTH CENTRAL NEBRASKA

CITY           SKY/WX    TMP DP  RH WIND       PRES   REMARKS
VALENTINE      MOCLDY    78  58  49 NE8       29.99S
AINSWORTH      MOCLDY    81  57  43 NE8G24    29.97F
BROKEN BOW     MOCLDY    76  60  57 S7        29.97S
O`NEILL        PTCLDY    79  64  59 W6        29.92F
THEDFORD       MOCLDY    71  56  58 CALM      29.98S
$$

NEZ041-046>049-061>064-073>077-083>087-220800-
SOUTH CENTRAL NEBRASKA

CITY           SKY/WX    TMP DP  RH WIND       PRES   REMARKS
GRAND ISLAND   MOCLDY    85  71  63 SW14      29.94R HX  90
AURORA         MOCLDY    84  72  66 SW9       29.94S
HASTINGS       MOCLDY    82  67  60 S9        29.96S
HEBRON         CLEAR     80  69  67 S6        29.95F
HOLDREGE       PTCLDY    77  65  65 S12       30.00R
KEARNEY *      PTCLDY    82  70  65 SW14      29.97S
YORK           MOCLDY    82  73  74 S10       29.93F
$$

NEZ011>018-030>034-042>045-220800-
NORTHEAST NEBRASKA

CITY           SKY/WX    TMP DP  RH WIND       PRES   REMARKS
NORFOLK        PTCLDY    80  72  76 W6        29.90R
ALBION         PTCLDY    79  71  76 NW8       29.93R
BLAIR          CLOUDY    88  69  54 SW14      29.89S HX  92
COLUMBUS *     CLOUDY    88  70  55 W8        29.90F HX  92
FREMONT        CLOUDY    90  70  50 SW13      29.88S HX  95
TEKAMAH        CLOUDY    85  73  67 S9        29.86R HX  91
$$

NEZ050>053-065>068-078-088>093-220800-
SOUTHEAST NEBRASKA

CITY           SKY/WX    TMP DP  RH WIND       PRES   REMARKS
LINCOLN        CLOUDY    85  70  60 SW6       29.93R
OMAHA EPPLEY   CLOUDY    87  72  60 S10       29.88S HX  93
BEATRICE       PTCLDY    78  69  73 SW8       29.94R
FALLS CITY     PTCLDY    81  73  76 SW13      29.92S
NEBRASKA CITY  CLOUDY    82  72  71 SW17      29.90F
PLATTSMOUTH    CLOUDY    85  69  59 SW13      29.91R
$$

NEZ044-045-051>053-067-220800-
OMAHA AREA

CITY           SKY/WX    TMP DP  RH WIND       PRES   REMARKS
OMAHA EPPLEY   CLOUDY    87  72  60 S10       29.88S HX  93
BLAIR          CLOUDY    88  69  54 SW14      29.89S HX  92
FREMONT        CLOUDY    90  70  50 SW13      29.88S HX  95
MILLARD        CLOUDY    88  72  58 CALM      29.90R HX  95
OFFUTT AFB     CLOUDY    80  79  99 CALM      29.90R
PLATTSMOUTH    CLOUDY    85  69  59 SW13      29.91R
WAHOO          FAIR      91  68  47 SW20G33   29.87F HX  94
$$



USA.gov is the U.S. government's official web portal to all federal, state and local government web resources and services.